Time,TemperatureF,DewpointF,PressureIn,WindDirection,WindDirectionDegrees,WindSpeedMPH,WindSpeedGustMPH,Humidity,HourlyPrecipIn,Conditions,Clouds,dailyrainin,SoftwareType,DateUTC
2013-01-22 00:00:00,39.8,20.2,29.92,West,278,3.0,13.0,45,0.00,,CLR,0.00,VWS V14.00,2013-01-22 05:00:00,
2013-01-22 00:01:00,39.8,20.2,29.92,West,278,3.0,13.0,45,0.00,,CLR,0.00,VWS V14.00,2013-01-22 05:01:00,
2013-01-22 00:02:00,39.9,20.3,29.92,West,273,5.0,10.0,45,0.00,,CLR,0.00,VWS V14.00,2013-01-22 05:02:00,
2013-01-22 00:07:00,40.0,19.9,29.92,NW,310,6.0,11.0,44,0.00,,CLR,0.00,VWS V14.00,2013-01-22 05:07:00,
2013-01-22 00:12:00,40.1,20.0,29.92,NW,315,11.0,18.0,44,0.00,,CLR,0.00,VWS V14.00,2013-01-22 05:12:00,
2013-01-22 00:17:00,40.2,20.0,29.92,NW,304,6.0,18.0,44,0.00,,CLR,0.00,VWS V14.00,2013-01-22 05:17:00,
2013-01-22 00:22:00,40.1,20.0,29.92,NW,324,5.0,18.0,44,0.00,,CLR,0.00,VWS V14.00,2013-01-22 05:22:00,
2013-01-22 00:27:00,39.9,19.8,29.92,NW,321,3.0,18.0,44,0.00,,CLR,0.00,VWS V14.00,2013-01-22 05:27:00,
2013-01-22 00:30:00,39.9,20.3,29.92,NW,304,10.0,18.0,45,0.00,,CLR,0.00,VWS V14.00,2013-01-22 05:30:00,
2013-01-22 00:32:00,39.8,19.7,29.92,NNW,329,2.0,10.0,44,0.00,,CLR,0.00,VWS V14.00,2013-01-22 05:32:00,
2013-01-22 00:37:00,39.7,19.6,29.92,NW,319,11.0,14.0,44,0.00,,CLR,0.00,VWS V14.00,2013-01-22 05:37:00,
2013-01-22 00:42:00,39.8,19.1,29.92,NNW,330,10.0,14.0,43,0.00,,CLR,0.00,VWS V14.00,2013-01-22 05:42:00,
2013-01-22 00:47:00,39.7,19.6,29.91,WNW,295,5.0,15.0,44,0.00,,CLR,0.00,VWS V14.00,2013-01-22 05:47:00,
2013-01-22 00:52:00,39.4,19.3,29.91,NW,314,6.0,15.0,44,0.00,,CLR,0.00,VWS V14.00,2013-01-22 05:52:00,
2013-01-22 00:57:00,39.3,19.2,29.91,NW,309,5.0,15.0,44,0.00,,CLR,0.00,VWS V14.00,2013-01-22 05:57:00,
2013-01-22 01:00:00,39.2,19.1,29.92,WNW,283,10.0,15.0,44,0.00,,CLR,0.00,VWS V14.00,2013-01-22 06:00:00,
2013-01-22 01:02:00,39.1,19.0,29.92,WNW,297,10.0,18.0,44,0.00,,CLR,0.00,VWS V14.00,2013-01-22 06:02:00,
2013-01-22 01:07:00,39.0,19.0,29.92,NW,313,17.0,19.0,44,0.00,,CLR,0.00,VWS V14.00,2013-01-22 06:07:00,
2013-01-22 01:12:00,38.9,18.9,29.92,WNW,288,2.0,19.0,44,0.00,,CLR,0.00,VWS V14.00,2013-01-22 06:12:00,
2013-01-22 01:17:00,38.7,19.2,29.93,NW,321,10.0,19.0,45,0.00,,CLR,0.00,VWS V14.00,2013-01-22 06:17:00,
2013-01-22 01:22:00,38.4,18.4,29.93,NNW,328,18.0,19.0,44,0.00,,CLR,0.00,VWS V14.00,2013-01-22 06:22:00,
2013-01-22 01:27:00,38.3,18.8,29.93,WNW,300,3.0,19.0,45,0.00,,CLR,0.00,VWS V14.00,2013-01-22 06:27:00,
2013-01-22 01:30:00,38.2,18.2,29.92,NNW,343,9.0,19.0,44,0.00,,CLR,0.00,VWS V14.00,2013-01-22 06:30:00,
2013-01-22 01:32:00,38.1,18.1,29.92,NW,307,10.0,14.0,44,0.00,,CLR,0.00,VWS V14.00,2013-01-22 06:32:00,
2013-01-22 01:37:00,38.1,18.1,29.92,NW,309,10.0,15.0,44,0.00,,CLR,0.00,VWS V14.00,2013-01-22 06:37:00,
2013-01-22 01:42:00,38.0,18.0,29.92,NW,323,6.0,20.0,44,0.00,,CLR,0.00,VWS V14.00,2013-01-22 06:42:00,
2013-01-22 01:47:00,37.9,18.0,29.92,NW,321,13.0,20.0,44,0.00,,CLR,0.00,VWS V14.00,2013-01-22 06:47:00,
2013-01-22 01:52:00,37.8,17.9,29.92,WNW,285,13.0,21.0,44,0.00,,CLR,0.00,VWS V14.00,2013-01-22 06:52:00,
2013-01-22 01:57:00,37.9,18.0,29.92,WNW,297,18.0,23.0,44,0.00,,CLR,0.00,VWS V14.00,2013-01-22 06:57:00,
2013-01-22 02:02:00,37.8,17.9,29.92,West,276,3.0,19.0,44,0.00,,CLR,0.00,VWS V14.00,2013-01-22 07:02:00,
2013-01-22 02:07:00,37.6,17.7,29.92,NW,312,10.0,19.0,44,0.00,,CLR,0.00,VWS V14.00,2013-01-22 07:07:00,
2013-01-22 02:12:00,37.3,17.9,29.92,NW,316,11.0,19.0,45,0.00,,CLR,0.00,VWS V14.00,2013-01-22 07:12:00,
2013-01-22 02:17:00,37.2,17.3,29.93,WNW,291,6.0,23.0,44,0.00,,CLR,0.00,VWS V14.00,2013-01-22 07:17:00,
2013-01-22 02:22:00,37.1,17.7,29.93,NW,306,10.0,23.0,45,0.00,,CLR,0.00,VWS V14.00,2013-01-22 07:22:00,
2013-01-22 02:27:00,37.0,17.6,29.93,WNW,285,16.0,23.0,45,0.00,,CLR,0.00,VWS V14.00,2013-01-22 07:27:00,
2013-01-22 02:30:00,37.0,17.6,29.94,WNW,283,7.0,23.0,45,0.00,,CLR,0.00,VWS V14.00,2013-01-22 07:30:00,
2013-01-22 02:32:00,36.9,17.0,29.94,WNW,286,9.0,15.0,44,0.00,,CLR,0.00,VWS V14.00,2013-01-22 07:32:00,
2013-01-22 02:37:00,36.8,17.5,29.94,West,269,12.0,17.0,45,0.00,,CLR,0.00,VWS V14.00,2013-01-22 07:37:00,
2013-01-22 02:42:00,36.6,16.8,29.94,NNW,332,11.0,17.0,44,0.00,,CLR,0.00,VWS V14.00,2013-01-22 07:42:00,
2013-01-22 02:47:00,36.5,17.2,29.93,NW,305,16.0,18.0,45,0.00,,CLR,0.00,VWS V14.00,2013-01-22 07:47:00,
2013-01-22 02:52:00,36.4,17.1,29.93,West,266,6.0,20.0,45,0.00,,CLR,0.00,VWS V14.00,2013-01-22 07:52:00,
2013-01-22 02:57:00,36.2,16.9,29.93,WNW,282,7.0,20.0,45,0.00,,CLR,0.00,VWS V14.00,2013-01-22 07:57:00,
2013-01-22 03:00:00,36.2,16.9,29.94,West,276,10.0,20.0,45,0.00,,CLR,0.00,VWS V14.00,2013-01-22 08:00:00,
2013-01-22 03:02:00,36.1,16.8,29.94,WSW,254,4.0,10.0,45,0.00,,CLR,0.00,VWS V14.00,2013-01-22 08:02:00,
2013-01-22 03:07:00,35.9,16.6,29.94,WNW,295,5.0,19.0,45,0.00,,CLR,0.00,VWS V14.00,2013-01-22 08:07:00,
2013-01-22 03:12:00,35.7,17.0,29.94,WNW,300,5.0,19.0,46,0.00,,CLR,0.00,VWS V14.00,2013-01-22 08:12:00,
2013-01-22 03:17:00,35.7,17.0,29.94,WNW,292,9.0,19.0,46,0.00,,CLR,0.00,VWS V14.00,2013-01-22 08:17:00,
2013-01-22 03:22:00,35.6,16.9,29.94,WNW,284,2.0,19.0,46,0.00,,CLR,0.00,VWS V14.00,2013-01-22 08:22:00,
2013-01-22 03:27:00,35.6,16.4,29.94,WNW,292,7.0,19.0,45,0.00,,CLR,0.00,VWS V14.00,2013-01-22 08:27:00,
2013-01-22 03:30:00,35.6,16.4,29.94,NW,311,7.0,19.0,45,0.00,,CLR,0.00,VWS V14.00,2013-01-22 08:30:00,
2013-01-22 03:32:00,35.6,16.4,29.94,West,264,3.0,17.0,45,0.00,,CLR,0.00,VWS V14.00,2013-01-22 08:32:00,
2013-01-22 03:37:00,35.6,16.4,29.94,WNW,283,0.0,20.0,45,0.00,,CLR,0.00,VWS V14.00,2013-01-22 08:37:00,
2013-01-22 03:42:00,35.6,15.9,29.94,West,260,20.0,25.0,44,0.00,,CLR,0.00,VWS V14.00,2013-01-22 08:42:00,
2013-01-22 03:47:00,35.5,16.3,29.94,NW,311,4.0,25.0,45,0.00,,CLR,0.00,VWS V14.00,2013-01-22 08:47:00,
2013-01-22 03:52:00,35.2,16.0,29.94,West,278,14.0,25.0,45,0.00,,CLR,0.00,VWS V14.00,2013-01-22 08:52:00,
2013-01-22 04:00:00,35.1,15.9,29.93,WSW,257,3.0,25.0,45,0.00,,CLR,0.00,VWS V14.00,2013-01-22 09:00:00,
2013-01-22 04:18:00,34.9,15.7,29.94,WSW,248,12.0,18.0,45,0.00,,CLR,0.00,VWS V14.00,2013-01-22 09:18:00,
2013-01-22 04:23:00,34.8,15.6,29.94,West,269,10.0,18.0,45,0.00,,CLR,0.00,VWS V14.00,2013-01-22 09:23:00,
2013-01-22 04:28:00,34.9,15.2,29.94,West,271,3.0,18.0,44,0.00,,CLR,0.00,VWS V14.00,2013-01-22 09:28:00,
2013-01-22 04:30:00,34.9,15.2,29.94,WNW,283,10.0,18.0,44,0.00,,CLR,0.00,VWS V14.00,2013-01-22 09:30:00,
2013-01-22 04:33:00,35.0,15.8,29.94,West,269,2.0,16.0,45,0.00,,CLR,0.00,VWS V14.00,2013-01-22 09:33:00,
2013-01-22 04:38:00,34.8,15.1,29.94,SW,224,5.0,16.0,44,0.00,,CLR,0.00,VWS V14.00,2013-01-22 09:38:00,
2013-01-22 04:43:00,34.8,15.6,29.94,West,266,4.0,20.0,45,0.00,,CLR,0.00,VWS V14.00,2013-01-22 09:43:00,
2013-01-22 04:48:00,34.5,15.4,29.95,West,265,6.0,20.0,45,0.00,,CLR,0.00,VWS V14.00,2013-01-22 09:48:00,
2013-01-22 04:53:00,34.4,15.3,29.95,West,272,16.0,20.0,45,0.00,,CLR,0.00,VWS V14.00,2013-01-22 09:53:00,
2013-01-22 04:58:00,34.2,15.1,29.95,NW,311,2.0,20.0,45,0.00,,CLR,0.00,VWS V14.00,2013-01-22 09:58:00,
2013-01-22 05:00:00,34.1,15.0,29.96,West,279,5.0,20.0,45,0.00,,CLR,0.00,VWS V14.00,2013-01-22 10:00:00,
2013-01-22 05:03:00,33.8,14.7,29.96,NW,307,7.0,15.0,45,0.00,,CLR,0.00,VWS V14.00,2013-01-22 10:03:00,
2013-01-22 05:08:00,33.5,15.4,29.96,WSW,253,6.0,15.0,47,0.00,,CLR,0.00,VWS V14.00,2013-01-22 10:08:00,
2013-01-22 05:13:00,33.3,14.8,29.96,NW,309,6.0,15.0,46,0.00,,CLR,0.00,VWS V14.00,2013-01-22 10:13:00,
2013-01-22 05:18:00,33.2,14.2,29.97,WNW,294,2.0,21.0,45,0.00,,CLR,0.00,VWS V14.00,2013-01-22 10:18:00,
2013-01-22 05:23:00,33.2,14.2,29.97,WNW,285,4.0,21.0,45,0.00,,CLR,0.00,VWS V14.00,2013-01-22 10:23:00,
2013-01-22 05:28:00,33.2,14.2,29.97,WSW,257,4.0,21.0,45,0.00,,CLR,0.00,VWS V14.00,2013-01-22 10:28:00,
2013-01-22 05:30:00,33.1,14.1,29.98,WNW,290,11.0,21.0,45,0.00,,CLR,0.00,VWS V14.00,2013-01-22 10:30:00,
2013-01-22 05:33:00,32.9,14.4,29.98,WNW,285,7.0,13.0,46,0.00,,CLR,0.00,VWS V14.00,2013-01-22 10:33:00,
2013-01-22 05:38:00,32.7,14.2,29.98,WSW,238,0.0,18.0,46,0.00,,CLR,0.00,VWS V14.00,2013-01-22 10:38:00,
2013-01-22 05:43:00,32.3,14.3,29.98,NW,305,4.0,18.0,47,0.00,,CLR,0.00,VWS V14.00,2013-01-22 10:43:00,
2013-01-22 05:48:00,32.1,14.2,29.99,West,270,7.0,19.0,47,0.00,,CLR,0.00,VWS V14.00,2013-01-22 10:48:00,
2013-01-22 05:53:00,31.9,14.0,29.99,WNW,289,7.0,19.0,47,0.00,,CLR,0.00,VWS V14.00,2013-01-22 10:53:00,
2013-01-22 05:58:00,31.8,13.9,29.99,WNW,290,8.0,19.0,47,0.00,,CLR,0.00,VWS V14.00,2013-01-22 10:58:00,
2013-01-22 06:00:00,31.7,13.8,30.00,West,274,6.0,19.0,47,0.00,,CLR,0.00,VWS V14.00,2013-01-22 11:00:00,
2013-01-22 06:03:00,31.6,14.2,30.00,WNW,286,3.0,19.0,48,0.00,,CLR,0.00,VWS V14.00,2013-01-22 11:03:00,
2013-01-22 06:08:00,31.5,14.1,30.00,West,262,1.0,19.0,48,0.00,,CLR,0.00,VWS V14.00,2013-01-22 11:08:00,
2013-01-22 06:13:00,31.4,13.5,30.00,WSW,238,10.0,19.0,47,0.00,,CLR,0.00,VWS V14.00,2013-01-22 11:13:00,
2013-01-22 06:18:00,31.4,14.0,30.00,WNW,295,0.0,19.0,48,0.00,,CLR,0.00,VWS V14.00,2013-01-22 11:18:00,
2013-01-22 06:23:00,31.1,13.7,30.00,WNW,289,3.0,19.0,48,0.00,,CLR,0.00,VWS V14.00,2013-01-22 11:23:00,
2013-01-22 06:28:00,31.0,13.1,30.00,WSW,253,2.0,19.0,47,0.00,,CLR,0.00,VWS V14.00,2013-01-22 11:28:00,
2013-01-22 06:30:00,31.0,13.1,30.01,West,280,1.0,19.0,47,0.00,,CLR,0.00,VWS V14.00,2013-01-22 11:30:00,
2013-01-22 06:33:00,30.9,13.1,30.01,West,281,2.0,16.0,47,0.00,,CLR,0.00,VWS V14.00,2013-01-22 11:33:00,
2013-01-22 06:38:00,30.8,12.5,30.01,West,277,9.0,16.0,46,0.00,,CLR,0.00,VWS V14.00,2013-01-22 11:38:00,
2013-01-22 06:43:00,30.8,13.0,30.01,WNW,295,4.0,18.0,47,0.00,,CLR,0.00,VWS V14.00,2013-01-22 11:43:00,
2013-01-22 06:48:00,30.6,12.8,30.01,West,269,13.0,18.0,47,0.00,,CLR,0.00,VWS V14.00,2013-01-22 11:48:00,
2013-01-22 06:53:00,30.5,12.7,30.01,NW,304,5.0,18.0,47,0.00,,CLR,0.00,VWS V14.00,2013-01-22 11:53:00,
2013-01-22 06:58:00,30.4,12.1,30.01,West,264,3.0,18.0,46,0.00,,CLR,0.00,VWS V14.00,2013-01-22 11:58:00,
2013-01-22 07:00:00,30.4,12.1,30.02,WNW,302,2.0,18.0,46,0.00,,CLR,0.00,VWS V14.00,2013-01-22 12:00:00,
2013-01-22 07:03:00,30.4,12.1,30.02,WSW,253,10.0,17.0,46,0.00,,CLR,0.00,VWS V14.00,2013-01-22 12:03:00,
2013-01-22 07:08:00,30.3,12.5,30.02,SW,227,14.0,17.0,47,0.00,,CLR,0.00,VWS V14.00,2013-01-22 12:08:00,
2013-01-22 07:13:00,30.2,12.4,30.02,SSW,210,7.0,17.0,47,0.00,,CLR,0.00,VWS V14.00,2013-01-22 12:13:00,
2013-01-22 07:18:00,30.1,11.8,30.02,SW,221,3.0,17.0,46,0.00,,CLR,0.00,VWS V14.00,2013-01-22 12:18:00,
2013-01-22 07:23:00,29.9,12.1,30.02,West,259,5.0,17.0,47,0.00,,CLR,0.00,VWS V14.00,2013-01-22 12:23:00,
2013-01-22 07:28:00,29.8,11.6,30.02,SW,228,9.0,17.0,46,0.00,,CLR,0.00,VWS V14.00,2013-01-22 12:28:00,
2013-01-22 07:30:00,29.8,12.0,30.04,WNW,288,2.0,17.0,47,0.00,,CLR,0.00,VWS V14.00,2013-01-22 12:30:00,
2013-01-22 07:33:00,29.8,12.0,30.04,West,277,1.0,12.0,47,0.00,,CLR,0.00,VWS V14.00,2013-01-22 12:33:00,
2013-01-22 07:38:00,29.6,11.4,30.04,West,269,5.0,12.0,46,0.00,,CLR,0.00,VWS V14.00,2013-01-22 12:38:00,
2013-01-22 07:43:00,29.6,11.9,30.04,West,263,2.0,12.0,47,0.00,,CLR,0.00,VWS V14.00,2013-01-22 12:43:00,
2013-01-22 07:48:00,29.4,11.7,30.05,WNW,288,0.0,12.0,47,0.00,,CLR,0.00,VWS V14.00,2013-01-22 12:48:00,
2013-01-22 07:53:00,29.4,11.7,30.05,West,259,1.0,12.0,47,0.00,,CLR,0.00,VWS V14.00,2013-01-22 12:53:00,
2013-01-22 07:58:00,29.3,11.6,30.05,SW,225,5.0,12.0,47,0.00,,CLR,0.00,VWS V14.00,2013-01-22 12:58:00,
2013-01-22 08:00:00,29.3,11.1,30.06,WNW,287,0.0,12.0,46,0.00,,CLR,0.00,VWS V14.00,2013-01-22 13:00:00,
2013-01-22 08:03:00,29.3,11.1,30.06,WNW,282,6.0,12.0,46,0.00,,CLR,0.00,VWS V14.00,2013-01-22 13:03:00,
2013-01-22 08:08:00,29.3,11.1,30.06,WNW,288,1.0,12.0,46,0.00,,CLR,0.00,VWS V14.00,2013-01-22 13:08:00,
2013-01-22 08:13:00,29.3,11.1,30.06,NW,314,0.0,12.0,46,0.00,,CLR,0.00,VWS V14.00,2013-01-22 13:13:00,
2013-01-22 08:18:00,29.3,10.6,30.07,NW,313,4.0,12.0,45,0.00,,CLR,0.00,VWS V14.00,2013-01-22 13:18:00,
2013-01-22 08:23:00,29.3,10.6,30.07,WNW,293,3.0,12.0,45,0.00,,CLR,0.00,VWS V14.00,2013-01-22 13:23:00,
2013-01-22 08:28:00,29.4,11.2,30.07,WNW,300,0.0,12.0,46,0.00,,CLR,0.00,VWS V14.00,2013-01-22 13:28:00,
2013-01-22 08:30:00,29.4,10.7,30.07,West,271,3.0,12.0,45,0.00,,CLR,0.00,VWS V14.00,2013-01-22 13:30:00,
2013-01-22 08:33:00,29.4,11.2,30.07,WSW,250,4.0,11.0,46,0.00,,CLR,0.00,VWS V14.00,2013-01-22 13:33:00,
2013-01-22 08:38:00,29.4,10.7,30.07,NW,305,4.0,11.0,45,0.00,,CLR,0.00,VWS V14.00,2013-01-22 13:38:00,
2013-01-22 08:43:00,29.6,10.9,30.07,NW,321,1.0,11.0,45,0.00,,CLR,0.00,VWS V14.00,2013-01-22 13:43:00,
2013-01-22 08:48:00,29.6,10.9,30.08,WSW,250,10.0,12.0,45,0.00,,CLR,0.00,VWS V14.00,2013-01-22 13:48:00,
2013-01-22 08:53:00,29.7,11.0,30.08,West,262,0.0,12.0,45,0.00,,CLR,0.00,VWS V14.00,2013-01-22 13:53:00,
2013-01-22 08:58:00,29.8,11.1,30.08,West,264,2.0,12.0,45,0.00,,CLR,0.00,VWS V14.00,2013-01-22 13:58:00,
2013-01-22 09:00:00,29.8,11.1,30.08,WSW,247,4.0,12.0,45,0.00,,CLR,0.00,VWS V14.00,2013-01-22 14:00:00,
2013-01-22 09:03:00,29.9,11.2,30.08,WNW,293,5.0,10.0,45,0.00,,CLR,0.00,VWS V14.00,2013-01-22 14:03:00,
2013-01-22 09:08:00,30.1,11.3,30.08,SW,230,4.0,14.0,45,0.00,,CLR,0.00,VWS V14.00,2013-01-22 14:08:00,
2013-01-22 09:13:00,30.1,10.8,30.08,West,277,0.0,14.0,44,0.00,,CLR,0.00,VWS V14.00,2013-01-22 14:13:00,
2013-01-22 09:18:00,30.2,10.9,30.09,SW,224,2.0,16.0,44,0.00,,CLR,0.00,VWS V14.00,2013-01-22 14:18:00,
2013-01-22 09:23:00,30.4,11.1,30.09,WSW,243,5.0,16.0,44,0.00,,CLR,0.00,VWS V14.00,2013-01-22 14:23:00,
2013-01-22 09:28:00,30.6,11.3,30.09,NW,314,6.0,17.0,44,0.00,,CLR,0.00,VWS V14.00,2013-01-22 14:28:00,
2013-01-22 09:30:00,30.6,11.3,30.09,WNW,295,6.0,17.0,44,0.00,,CLR,0.00,VWS V14.00,2013-01-22 14:30:00,
2013-01-22 09:33:00,30.7,11.4,30.09,West,269,5.0,13.0,44,0.00,,CLR,0.00,VWS V14.00,2013-01-22 14:33:00,
2013-01-22 09:38:00,30.8,11.0,30.09,WNW,289,4.0,15.0,43,0.00,,CLR,0.00,VWS V14.00,2013-01-22 14:38:00,
2013-01-22 09:43:00,30.9,11.1,30.09,WNW,293,13.0,20.0,43,0.00,,CLR,0.00,VWS V14.00,2013-01-22 14:43:00,
2013-01-22 09:48:00,31.0,11.1,30.10,NW,305,6.0,20.0,43,0.00,,CLR,0.00,VWS V14.00,2013-01-22 14:48:00,
2013-01-22 09:53:00,31.4,12.0,30.10,SW,236,2.0,20.0,44,0.00,,CLR,0.00,VWS V14.00,2013-01-22 14:53:00,
2013-01-22 09:58:00,31.7,12.3,30.10,West,276,5.0,20.0,44,0.00,,CLR,0.00,VWS V14.00,2013-01-22 14:58:00,
2013-01-22 10:00:00,31.7,11.8,30.11,WSW,245,2.0,20.0,43,0.00,,CLR,0.00,VWS V14.00,2013-01-22 15:00:00,
2013-01-22 10:03:00,31.7,11.8,30.11,West,269,1.0,9.0,43,0.00,,CLR,0.00,VWS V14.00,2013-01-22 15:03:00,
2013-01-22 10:08:00,31.9,12.0,30.11,SW,231,0.0,10.0,43,0.00,,CLR,0.00,VWS V14.00,2013-01-22 15:08:00,
2013-01-22 10:13:00,32.0,11.5,30.11,NW,311,3.0,10.0,42,0.00,,CLR,0.00,VWS V14.00,2013-01-22 15:13:00,
2013-01-22 10:18:00,32.0,11.5,30.11,NNW,329,5.0,12.0,42,0.00,,CLR,0.00,VWS V14.00,2013-01-22 15:18:00,
2013-01-22 10:23:00,32.2,11.2,30.11,WSW,248,4.0,14.0,41,0.00,,CLR,0.00,VWS V14.00,2013-01-22 15:23:00,
2013-01-22 10:28:00,32.4,11.9,30.11,WNW,298,8.0,14.0,42,0.00,,CLR,0.00,VWS V14.00,2013-01-22 15:28:00,
2013-01-22 10:30:00,32.5,12.0,30.11,NW,311,5.0,14.0,42,0.00,,CLR,0.00,VWS V14.00,2013-01-22 15:30:00,
2013-01-22 10:33:00,32.7,11.6,30.11,West,273,0.0,12.0,41,0.00,,CLR,0.00,VWS V14.00,2013-01-22 15:33:00,
2013-01-22 10:38:00,33.2,12.1,30.11,NW,319,9.0,12.0,41,0.00,,CLR,0.00,VWS V14.00,2013-01-22 15:38:00,
2013-01-22 10:43:00,33.5,12.3,30.11,West,264,8.0,12.0,41,0.00,,CLR,0.00,VWS V14.00,2013-01-22 15:43:00,
2013-01-22 10:48:00,33.4,11.7,30.11,West,273,6.0,14.0,40,0.00,,CLR,0.00,VWS V14.00,2013-01-22 15:48:00,
2013-01-22 10:53:00,33.5,12.3,30.11,WSW,255,7.0,14.0,41,0.00,,CLR,0.00,VWS V14.00,2013-01-22 15:53:00,
2013-01-22 10:58:00,33.6,11.3,30.11,WNW,291,6.0,15.0,39,0.00,,CLR,0.00,VWS V14.00,2013-01-22 15:58:00,
2013-01-22 11:00:00,33.6,11.3,30.11,SSW,203,10.0,15.0,39,0.00,,CLR,0.00,VWS V14.00,2013-01-22 16:00:00,
2013-01-22 11:03:00,33.7,11.4,30.11,SW,221,4.0,11.0,39,0.00,,CLR,0.00,VWS V14.00,2013-01-22 16:03:00,
2013-01-22 11:08:00,33.8,10.9,30.11,WSW,245,5.0,14.0,38,0.00,,CLR,0.00,VWS V14.00,2013-01-22 16:08:00,
2013-01-22 11:13:00,33.9,11.6,30.11,WSW,245,4.0,14.0,39,0.00,,CLR,0.00,VWS V14.00,2013-01-22 16:13:00,
2013-01-22 11:18:00,34.4,11.4,30.11,WNW,292,9.0,14.0,38,0.00,,CLR,0.00,VWS V14.00,2013-01-22 16:18:00,
2013-01-22 11:23:00,34.4,10.8,30.11,SW,236,3.0,14.0,37,0.00,,CLR,0.00,VWS V14.00,2013-01-22 16:23:00,
2013-01-22 11:28:00,34.4,10.2,30.11,West,274,10.0,14.0,36,0.00,,CLR,0.00,VWS V14.00,2013-01-22 16:28:00,
2013-01-22 11:30:00,34.4,9.6,30.12,WSW,239,6.0,14.0,35,0.00,,CLR,0.00,VWS V14.00,2013-01-22 16:30:00,
2013-01-22 11:33:00,34.4,10.2,30.12,SW,223,2.0,9.0,36,0.00,,CLR,0.00,VWS V14.00,2013-01-22 16:33:00,
2013-01-22 11:38:00,34.7,9.9,30.12,WNW,286,10.0,15.0,35,0.00,,CLR,0.00,VWS V14.00,2013-01-22 16:38:00,
2013-01-22 11:43:00,35.0,9.5,30.12,West,268,0.0,15.0,34,0.00,,CLR,0.00,VWS V14.00,2013-01-22 16:43:00,
2013-01-22 11:48:00,35.3,9.1,30.11,West,272,1.0,18.0,33,0.00,,CLR,0.00,VWS V14.00,2013-01-22 16:48:00,
2013-01-22 11:53:00,35.4,8.5,30.11,WNW,298,16.0,18.0,32,0.00,,CLR,0.00,VWS V14.00,2013-01-22 16:53:00,
2013-01-22 11:58:00,35.4,8.5,30.11,NW,326,13.0,18.0,32,0.00,,CLR,0.00,VWS V14.00,2013-01-22 16:58:00,
2013-01-22 12:00:00,35.5,8.6,30.11,North,349,5.0,18.0,32,0.00,,CLR,0.00,VWS V14.00,2013-01-22 17:00:00,
2013-01-22 12:03:00,35.7,8.8,30.11,WNW,285,1.0,13.0,32,0.00,,CLR,0.00,VWS V14.00,2013-01-22 17:03:00,
2013-01-22 12:08:00,36.1,8.4,30.11,West,279,3.0,15.0,31,0.00,,CLR,0.00,VWS V14.00,2013-01-22 17:08:00,
2013-01-22 12:13:00,36.1,6.9,30.11,WSW,243,3.0,15.0,29,0.00,,CLR,0.00,VWS V14.00,2013-01-22 17:13:00,
2013-01-22 12:18:00,35.7,6.6,30.11,WSW,242,11.0,19.0,29,0.00,,CLR,0.00,VWS V14.00,2013-01-22 17:18:00,
2013-01-22 12:23:00,36.0,7.6,30.11,West,276,1.0,19.0,30,0.00,,CLR,0.00,VWS V14.00,2013-01-22 17:23:00,
2013-01-22 12:28:00,36.4,7.2,30.11,WNW,290,0.0,19.0,29,0.00,,CLR,0.00,VWS V14.00,2013-01-22 17:28:00,
2013-01-22 12:30:00,36.5,6.5,30.10,WSW,243,4.0,19.0,28,0.00,,CLR,0.00,VWS V14.00,2013-01-22 17:30:00,
2013-01-22 12:33:00,36.5,6.5,30.10,NW,325,7.0,12.0,28,0.00,,CLR,0.00,VWS V14.00,2013-01-22 17:33:00,
2013-01-22 12:38:00,37.0,7.7,30.10,West,281,5.0,12.0,29,0.00,,CLR,0.00,VWS V14.00,2013-01-22 17:38:00,
2013-01-22 12:43:00,37.1,6.2,30.10,West,268,10.0,16.0,27,0.00,,CLR,0.00,VWS V14.00,2013-01-22 17:43:00,
2013-01-22 12:48:00,36.9,6.1,30.09,WSW,238,2.0,17.0,27,0.00,,CLR,0.00,VWS V14.00,2013-01-22 17:48:00,
2013-01-22 12:53:00,37.1,6.2,30.09,West,271,11.0,17.0,27,0.00,,CLR,0.00,VWS V14.00,2013-01-22 17:53:00,
2013-01-22 12:58:00,37.4,5.7,30.09,SW,234,11.0,18.0,26,0.00,,CLR,0.00,VWS V14.00,2013-01-22 17:58:00,
2013-01-22 13:00:00,37.5,5.8,30.08,West,267,14.0,18.0,26,0.00,,CLR,0.00,VWS V14.00,2013-01-22 18:00:00,
2013-01-22 13:03:00,37.6,6.7,30.08,WSW,238,13.0,19.0,27,0.00,,CLR,0.00,VWS V14.00,2013-01-22 18:03:00,
2013-01-22 13:08:00,37.5,6.6,30.08,NW,311,14.0,19.0,27,0.00,,CLR,0.00,VWS V14.00,2013-01-22 18:08:00,
2013-01-22 13:13:00,37.9,5.2,30.08,WNW,297,14.0,19.0,25,0.00,,CLR,0.00,VWS V14.00,2013-01-22 18:13:00,
2013-01-22 13:18:00,38.2,5.5,30.08,West,271,13.0,19.0,25,0.00,,CLR,0.00,VWS V14.00,2013-01-22 18:18:00,
2013-01-22 13:23:00,38.3,4.7,30.08,WNW,294,16.0,25.0,24,0.00,,CLR,0.00,VWS V14.00,2013-01-22 18:23:00,
2013-01-22 13:28:00,38.4,3.8,30.08,NW,305,18.0,25.0,23,0.00,,CLR,0.00,VWS V14.00,2013-01-22 18:28:00,
2013-01-22 13:30:00,38.6,4.9,30.07,WNW,297,7.0,25.0,24,0.00,,CLR,0.00,VWS V14.00,2013-01-22 18:30:00,
2013-01-22 13:33:00,38.9,6.1,30.07,WSW,247,15.0,17.0,25,0.00,,CLR,0.00,VWS V14.00,2013-01-22 18:33:00,
2013-01-22 13:38:00,39.0,6.2,30.07,SW,221,7.0,18.0,25,0.00,,CLR,0.00,VWS V14.00,2013-01-22 18:38:00,
2013-01-22 13:43:00,39.0,6.2,30.07,West,268,4.0,20.0,25,0.00,,CLR,0.00,VWS V14.00,2013-01-22 18:43:00,
2013-01-22 13:48:00,38.9,6.1,30.08,West,260,19.0,20.0,25,0.00,,CLR,0.00,VWS V14.00,2013-01-22 18:48:00,
2013-01-22 13:53:00,38.8,6.0,30.08,WSW,238,13.0,20.0,25,0.00,,CLR,0.00,VWS V14.00,2013-01-22 18:53:00,
2013-01-22 13:58:00,39.0,6.2,30.08,WNW,295,14.0,21.0,25,0.00,,CLR,0.00,VWS V14.00,2013-01-22 18:58:00,
2013-01-22 14:00:00,39.1,7.1,30.07,SW,215,7.0,21.0,26,0.00,,CLR,0.00,VWS V14.00,2013-01-22 19:00:00,
2013-01-22 14:03:00,39.4,7.4,30.07,WSW,255,17.0,18.0,26,0.00,,CLR,0.00,VWS V14.00,2013-01-22 19:03:00,
2013-01-22 14:08:00,39.6,7.6,30.07,WSW,242,8.0,18.0,26,0.00,,CLR,0.00,VWS V14.00,2013-01-22 19:08:00,
2013-01-22 14:13:00,40.0,8.7,30.07,SW,236,6.0,18.0,27,0.00,,CLR,0.00,VWS V14.00,2013-01-22 19:13:00,
2013-01-22 14:18:00,40.3,8.1,30.07,West,262,6.0,18.0,26,0.00,,CLR,0.00,VWS V14.00,2013-01-22 19:18:00,
2013-01-22 14:23:00,40.2,8.9,30.07,West,278,7.0,18.0,27,0.00,,CLR,0.00,VWS V14.00,2013-01-22 19:23:00,
2013-01-22 14:28:00,40.0,8.7,30.07,SW,236,13.0,18.0,27,0.00,,CLR,0.00,VWS V14.00,2013-01-22 19:28:00,
2013-01-22 14:33:00,40.0,8.7,30.07,West,270,2.0,14.0,27,0.00,,CLR,0.00,VWS V14.00,2013-01-22 19:33:00,
2013-01-22 14:38:00,40.1,8.8,30.07,West,280,6.0,14.0,27,0.00,,CLR,0.00,VWS V14.00,2013-01-22 19:38:00,
2013-01-22 14:43:00,40.3,8.1,30.07,SW,223,5.0,18.0,26,0.00,,CLR,0.00,VWS V14.00,2013-01-22 19:43:00,
2013-01-22 14:48:00,40.5,9.2,30.07,SW,219,4.0,18.0,27,0.00,,CLR,0.00,VWS V14.00,2013-01-22 19:48:00,
2013-01-22 14:53:00,40.6,9.2,30.07,NW,318,4.0,18.0,27,0.00,,CLR,0.00,VWS V14.00,2013-01-22 19:53:00,
2013-01-22 14:58:00,40.6,10.1,30.07,WNW,290,10.0,18.0,28,0.00,,CLR,0.00,VWS V14.00,2013-01-22 19:58:00,
2013-01-22 15:00:00,40.6,9.2,30.06,WNW,300,7.0,18.0,27,0.00,,CLR,0.00,VWS V14.00,2013-01-22 20:00:00,
2013-01-22 15:03:00,40.5,10.8,30.06,West,269,5.0,13.0,29,0.00,,CLR,0.00,VWS V14.00,2013-01-22 20:03:00,
2013-01-22 15:08:00,40.4,10.7,30.06,WSW,242,6.0,13.0,29,0.00,,CLR,0.00,VWS V14.00,2013-01-22 20:08:00,
2013-01-22 15:13:00,40.2,9.7,30.06,SW,217,4.0,13.0,28,0.00,,CLR,0.00,VWS V14.00,2013-01-22 20:13:00,
2013-01-22 15:18:00,40.2,10.5,30.06,WNW,296,9.0,13.0,29,0.00,,CLR,0.00,VWS V14.00,2013-01-22 20:18:00,
2013-01-22 15:23:00,40.4,9.9,30.06,West,280,4.0,14.0,28,0.00,,CLR,0.00,VWS V14.00,2013-01-22 20:23:00,
2013-01-22 15:28:00,41.0,10.4,30.06,WNW,293,2.0,14.0,28,0.00,,CLR,0.00,VWS V14.00,2013-01-22 20:28:00,
2013-01-22 15:30:00,41.0,10.4,30.07,WNW,294,6.0,14.0,28,0.00,,CLR,0.00,VWS V14.00,2013-01-22 20:30:00,
2013-01-22 15:33:00,41.0,10.4,30.07,West,267,3.0,12.0,28,0.00,,CLR,0.00,VWS V14.00,2013-01-22 20:33:00,
2013-01-22 15:38:00,41.3,10.7,30.07,WNW,290,5.0,12.0,28,0.00,,CLR,0.00,VWS V14.00,2013-01-22 20:38:00,
2013-01-22 15:43:00,41.4,11.5,30.07,WNW,287,2.0,12.0,29,0.00,,CLR,0.00,VWS V14.00,2013-01-22 20:43:00,
2013-01-22 15:48:00,41.3,10.7,30.06,West,266,6.0,12.0,28,0.00,,CLR,0.00,VWS V14.00,2013-01-22 20:48:00,
2013-01-22 15:53:00,41.2,10.6,30.06,WNW,302,3.0,12.0,28,0.00,,CLR,0.00,VWS V14.00,2013-01-22 20:53:00,
2013-01-22 15:58:00,41.2,11.4,30.06,SW,229,5.0,12.0,29,0.00,,CLR,0.00,VWS V14.00,2013-01-22 20:58:00,
2013-01-22 16:00:00,41.2,10.6,30.07,WNW,285,2.0,12.0,28,0.00,,CLR,0.00,VWS V14.00,2013-01-22 21:00:00,
2013-01-22 16:03:00,41.2,10.6,30.07,NW,313,10.0,11.0,28,0.00,,CLR,0.00,VWS V14.00,2013-01-22 21:03:00,
2013-01-22 16:08:00,41.3,11.5,30.07,SSW,208,2.0,11.0,29,0.00,,CLR,0.00,VWS V14.00,2013-01-22 21:08:00,
2013-01-22 16:13:00,41.8,12.7,30.07,SW,221,5.0,11.0,30,0.00,,CLR,0.00,VWS V14.00,2013-01-22 21:13:00,
2013-01-22 16:18:00,41.8,11.1,30.07,West,268,5.0,11.0,28,0.00,,CLR,0.00,VWS V14.00,2013-01-22 21:18:00,
2013-01-22 16:23:00,41.8,11.1,30.07,SW,234,6.0,11.0,28,0.00,,CLR,0.00,VWS V14.00,2013-01-22 21:23:00,
2013-01-22 16:28:00,41.8,11.9,30.07,West,268,2.0,11.0,29,0.00,,CLR,0.00,VWS V14.00,2013-01-22 21:28:00,
2013-01-22 16:32:00,41.9,12.0,30.07,SSW,205,3.0,5.0,29,0.00,,CLR,0.00,VWS V14.00,2013-01-22 21:32:00,
2013-01-22 16:37:00,42.0,12.8,30.07,WNW,290,1.0,6.0,30,0.00,,CLR,0.00,VWS V14.00,2013-01-22 21:37:00,
2013-01-22 16:42:00,41.7,11.8,30.07,WNW,295,2.0,6.0,29,0.00,,CLR,0.00,VWS V14.00,2013-01-22 21:42:00,
2013-01-22 16:47:00,41.7,12.6,30.07,WSW,248,2.0,6.0,30,0.00,,CLR,0.00,VWS V14.00,2013-01-22 21:47:00,
2013-01-22 16:52:00,41.7,12.6,30.07,West,278,4.0,7.0,30,0.00,,CLR,0.00,VWS V14.00,2013-01-22 21:52:00,
2013-01-22 16:57:00,41.4,11.5,30.07,WNW,283,2.0,7.0,29,0.00,,CLR,0.00,VWS V14.00,2013-01-22 21:57:00,
2013-01-22 17:02:00,40.9,11.1,30.08,West,280,5.0,5.0,29,0.00,,CLR,0.00,VWS V14.00,2013-01-22 22:02:00,
2013-01-22 17:07:00,40.6,11.6,30.08,West,278,1.0,6.0,30,0.00,,CLR,0.00,VWS V14.00,2013-01-22 22:07:00,
2013-01-22 17:12:00,40.3,10.6,30.08,WNW,282,2.0,6.0,29,0.00,,CLR,0.00,VWS V14.00,2013-01-22 22:12:00,
2013-01-22 17:17:00,40.0,10.3,30.08,NW,311,0.0,6.0,29,0.00,,CLR,0.00,VWS V14.00,2013-01-22 22:17:00,
2013-01-22 17:22:00,39.5,10.6,30.08,WNW,298,0.0,6.0,30,0.00,,CLR,0.00,VWS V14.00,2013-01-22 22:22:00,
2013-01-22 17:27:00,39.1,10.3,30.08,WNW,294,4.0,6.0,30,0.00,,CLR,0.00,VWS V14.00,2013-01-22 22:27:00,
2013-01-22 17:30:00,38.7,9.9,30.08,WNW,289,0.0,6.0,30,0.00,,CLR,0.00,VWS V14.00,2013-01-22 22:30:00,
2013-01-22 17:32:00,38.6,10.6,30.08,WNW,289,2.0,2.0,31,0.00,,CLR,0.00,VWS V14.00,2013-01-22 22:32:00,
2013-01-22 17:37:00,38.3,10.3,30.08,West,280,4.0,5.0,31,0.00,,CLR,0.00,VWS V14.00,2013-01-22 22:37:00,
2013-01-22 17:42:00,37.9,10.0,30.08,WNW,290,3.0,5.0,31,0.00,,CLR,0.00,VWS V14.00,2013-01-22 22:42:00,
2013-01-22 17:47:00,37.8,9.9,30.08,West,271,2.0,7.0,31,0.00,,CLR,0.00,VWS V14.00,2013-01-22 22:47:00,
2013-01-22 17:52:00,37.6,9.7,30.08,WNW,290,0.0,7.0,31,0.00,,CLR,0.00,VWS V14.00,2013-01-22 22:52:00,
2013-01-22 17:57:00,37.3,9.4,30.08,WNW,290,0.0,7.0,31,0.00,,CLR,0.00,VWS V14.00,2013-01-22 22:57:00,
2013-01-22 18:00:00,37.1,10.0,30.08,WNW,289,2.0,7.0,32,0.00,,CLR,0.00,VWS V14.00,2013-01-22 23:00:00,
2013-01-22 18:02:00,37.0,9.9,30.08,WNW,287,0.0,2.0,32,0.00,,CLR,0.00,VWS V14.00,2013-01-22 23:02:00,
2013-01-22 18:07:00,36.7,8.9,30.08,West,273,0.0,3.0,31,0.00,,CLR,0.00,VWS V14.00,2013-01-22 23:07:00,
2013-01-22 18:12:00,36.5,9.5,30.08,West,274,3.0,4.0,32,0.00,,CLR,0.00,VWS V14.00,2013-01-22 23:12:00,
2013-01-22 18:17:00,36.3,8.6,30.08,WNW,295,1.0,4.0,31,0.00,,CLR,0.00,VWS V14.00,2013-01-22 23:17:00,
2013-01-22 18:22:00,36.3,9.3,30.08,WNW,295,0.0,4.0,32,0.00,,CLR,0.00,VWS V14.00,2013-01-22 23:22:00,
2013-01-22 18:27:00,36.2,9.2,30.08,WNW,294,1.0,4.0,32,0.00,,CLR,0.00,VWS V14.00,2013-01-22 23:27:00,
2013-01-22 18:30:00,36.1,8.4,30.08,WNW,294,0.0,4.0,31,0.00,,CLR,0.00,VWS V14.00,2013-01-22 23:30:00,
2013-01-22 18:32:00,36.0,9.0,30.08,WNW,294,0.0,0.0,32,0.00,,CLR,0.00,VWS V14.00,2013-01-22 23:32:00,
2013-01-22 18:37:00,35.9,8.9,30.08,WNW,294,0.0,1.0,32,0.00,,CLR,0.00,VWS V14.00,2013-01-22 23:37:00,
2013-01-22 18:42:00,35.7,8.1,30.08,WNW,294,0.0,1.0,31,0.00,,CLR,0.00,VWS V14.00,2013-01-22 23:42:00,
2013-01-22 18:47:00,35.6,8.7,30.10,WNW,294,0.0,1.0,32,0.00,,CLR,0.00,VWS V14.00,2013-01-22 23:47:00,
2013-01-22 18:52:00,35.3,8.4,30.10,WNW,294,0.0,1.0,32,0.00,,CLR,0.00,VWS V14.00,2013-01-22 23:52:00,
2013-01-22 18:57:00,35.0,8.1,30.10,WNW,294,0.0,1.0,32,0.00,,CLR,0.00,VWS V14.00,2013-01-22 23:57:00,
2013-01-22 19:00:00,34.8,8.0,30.09,WNW,296,0.0,1.0,32,0.00,,CLR,0.00,VWS V14.00,2013-01-23 00:00:00,
2013-01-22 19:02:00,34.8,8.0,30.09,WNW,296,0.0,1.0,32,0.00,,CLR,0.00,VWS V14.00,2013-01-23 00:02:00,
2013-01-22 19:07:00,34.8,8.6,30.09,WNW,296,0.0,1.0,33,0.00,,CLR,0.00,VWS V14.00,2013-01-23 00:07:00,
2013-01-22 19:12:00,34.8,8.6,30.09,WNW,295,0.0,1.0,33,0.00,,CLR,0.00,VWS V14.00,2013-01-23 00:12:00,
2013-01-22 19:17:00,34.7,9.9,30.08,WNW,296,0.0,1.0,35,0.00,,CLR,0.00,VWS V14.00,2013-01-23 00:17:00,
2013-01-22 19:22:00,34.4,8.9,30.08,WNW,291,1.0,6.0,34,0.00,,CLR,0.00,VWS V14.00,2013-01-23 00:22:00,
2013-01-22 19:27:00,34.4,8.3,30.08,WNW,291,0.0,6.0,33,0.00,,CLR,0.00,VWS V14.00,2013-01-23 00:27:00,
2013-01-22 19:32:00,34.4,8.3,30.08,WNW,291,0.0,1.0,33,0.00,,CLR,0.00,VWS V14.00,2013-01-23 00:32:00,
2013-01-22 19:37:00,34.0,8.6,30.08,WNW,291,0.0,1.0,34,0.00,,CLR,0.00,VWS V14.00,2013-01-23 00:37:00,
2013-01-22 19:42:00,33.7,8.3,30.08,WNW,291,0.0,1.0,34,0.00,,CLR,0.00,VWS V14.00,2013-01-23 00:42:00,
2013-01-22 19:47:00,33.4,9.3,30.08,WNW,291,0.0,1.0,36,0.00,,CLR,0.00,VWS V14.00,2013-01-23 00:47:00,
2013-01-22 19:52:00,33.2,11.5,30.08,WNW,291,0.0,1.0,40,0.00,,CLR,0.00,VWS V14.00,2013-01-23 00:52:00,
2013-01-22 19:57:00,32.7,11.1,30.08,WNW,291,0.0,1.0,40,0.00,,CLR,0.00,VWS V14.00,2013-01-23 00:57:00,
2013-01-22 20:02:00,32.3,10.1,30.09,WNW,291,0.0,0.0,39,0.00,,CLR,0.00,VWS V14.00,2013-01-23 01:02:00,
2013-01-22 20:07:00,32.0,11.0,30.09,WNW,291,0.0,0.0,41,0.00,,CLR,0.00,VWS V14.00,2013-01-23 01:07:00,
2013-01-22 20:12:00,31.8,10.2,30.09,WNW,291,0.0,0.0,40,0.00,,CLR,0.00,VWS V14.00,2013-01-23 01:12:00,
2013-01-22 20:17:00,31.6,8.3,30.10,WNW,291,0.0,1.0,37,0.00,,CLR,0.00,VWS V14.00,2013-01-23 01:17:00,
2013-01-22 20:22:00,31.7,8.4,30.10,WNW,291,0.0,1.0,37,0.00,,CLR,0.00,VWS V14.00,2013-01-23 01:22:00,
2013-01-22 20:27:00,31.9,9.2,30.10,WNW,291,0.0,1.0,38,0.00,,CLR,0.00,VWS V14.00,2013-01-23 01:27:00,
2013-01-22 20:30:00,31.9,9.8,30.10,WNW,291,0.0,1.0,39,0.00,,CLR,0.00,VWS V14.00,2013-01-23 01:30:00,
2013-01-22 20:32:00,31.7,13.8,30.10,WNW,295,0.0,2.0,47,0.00,,CLR,0.00,VWS V14.00,2013-01-23 01:32:00,
2013-01-22 20:37:00,31.0,11.7,30.10,WNW,295,0.0,2.0,44,0.00,,CLR,0.00,VWS V14.00,2013-01-23 01:37:00,
2013-01-22 20:42:00,30.5,10.7,30.10,WNW,295,0.0,2.0,43,0.00,,CLR,0.00,VWS V14.00,2013-01-23 01:42:00,
2013-01-22 20:47:00,30.3,11.5,30.10,WNW,295,0.0,2.0,45,0.00,,CLR,0.00,VWS V14.00,2013-01-23 01:47:00,
2013-01-22 20:52:00,30.1,12.3,30.10,WNW,295,0.0,2.0,47,0.00,,CLR,0.00,VWS V14.00,2013-01-23 01:52:00,
2013-01-22 20:57:00,29.8,11.6,30.10,WNW,295,0.0,2.0,46,0.00,,CLR,0.00,VWS V14.00,2013-01-23 01:57:00,
2013-01-22 21:00:00,29.8,9.5,30.11,WNW,296,0.0,2.0,42,0.00,,CLR,0.00,VWS V14.00,2013-01-23 02:00:00,
2013-01-22 21:03:00,29.9,10.6,30.11,WNW,296,0.0,0.0,44,0.00,,CLR,0.00,VWS V14.00,2013-01-23 02:03:00,
2013-01-22 21:08:00,30.0,11.7,30.11,WNW,296,0.0,0.0,46,0.00,,CLR,0.00,VWS V14.00,2013-01-23 02:08:00,
2013-01-22 21:13:00,30.1,9.3,30.11,WNW,296,0.0,1.0,41,0.00,,CLR,0.00,VWS V14.00,2013-01-23 02:13:00,
2013-01-22 21:18:00,30.2,8.8,30.11,WNW,295,0.0,1.0,40,0.00,,CLR,0.00,VWS V14.00,2013-01-23 02:18:00,
2013-01-22 21:23:00,30.3,8.9,30.11,WNW,295,0.0,1.0,40,0.00,,CLR,0.00,VWS V14.00,2013-01-23 02:23:00,
2013-01-22 21:28:00,30.5,9.1,30.11,WNW,296,0.0,1.0,40,0.00,,CLR,0.00,VWS V14.00,2013-01-23 02:28:00,
2013-01-22 21:30:00,30.5,8.5,30.11,WNW,293,0.0,2.0,39,0.00,,CLR,0.00,VWS V14.00,2013-01-23 02:30:00,
2013-01-22 21:33:00,30.5,11.2,30.11,WNW,293,0.0,0.0,44,0.00,,CLR,0.00,VWS V14.00,2013-01-23 02:33:00,
2013-01-22 21:38:00,30.4,9.0,30.11,WNW,293,0.0,0.0,40,0.00,,CLR,0.00,VWS V14.00,2013-01-23 02:38:00,
2013-01-22 21:43:00,30.7,9.2,30.11,WNW,293,0.0,0.0,40,0.00,,CLR,0.00,VWS V14.00,2013-01-23 02:43:00,
2013-01-22 21:48:00,30.8,9.3,30.11,WNW,293,0.0,0.0,40,0.00,,CLR,0.00,VWS V14.00,2013-01-23 02:48:00,
2013-01-22 21:53:00,30.8,8.8,30.11,WNW,293,0.0,0.0,39,0.00,,CLR,0.00,VWS V14.00,2013-01-23 02:53:00,
2013-01-22 21:58:00,30.7,8.7,30.11,WNW,293,0.0,0.0,39,0.00,,CLR,0.00,VWS V14.00,2013-01-23 02:58:00,
2013-01-22 22:00:00,30.6,8.6,30.11,WNW,293,0.0,0.0,39,0.00,,CLR,0.00,VWS V14.00,2013-01-23 03:00:00,
2013-01-22 22:03:00,30.6,9.2,30.11,WNW,293,0.0,1.0,40,0.00,,CLR,0.00,VWS V14.00,2013-01-23 03:03:00,
2013-01-22 22:08:00,30.6,9.2,30.11,WNW,293,0.0,1.0,40,0.00,,CLR,0.00,VWS V14.00,2013-01-23 03:08:00,
2013-01-22 22:13:00,30.6,9.7,30.11,WNW,293,0.0,1.0,41,0.00,,CLR,0.00,VWS V14.00,2013-01-23 03:13:00,
2013-01-22 22:18:00,30.5,9.6,30.12,WNW,293,0.0,1.0,41,0.00,,CLR,0.00,VWS V14.00,2013-01-23 03:18:00,
2013-01-22 22:23:00,30.5,9.6,30.12,WNW,293,0.0,1.0,41,0.00,,CLR,0.00,VWS V14.00,2013-01-23 03:23:00,
2013-01-22 22:28:00,30.3,9.4,30.12,WNW,293,0.0,1.0,41,0.00,,CLR,0.00,VWS V14.00,2013-01-23 03:28:00,
2013-01-22 22:33:00,30.2,9.9,30.13,WNW,293,0.0,0.0,42,0.00,,CLR,0.00,VWS V14.00,2013-01-23 03:33:00,
2013-01-22 22:38:00,30.2,11.4,30.13,WNW,293,0.0,0.0,45,0.00,,CLR,0.00,VWS V14.00,2013-01-23 03:38:00,
2013-01-22 22:43:00,29.9,13.1,30.13,WNW,293,0.0,0.0,49,0.00,,CLR,0.00,VWS V14.00,2013-01-23 03:43:00,
2013-01-22 22:48:00,29.6,13.3,30.13,WNW,293,0.0,0.0,50,0.00,,CLR,0.00,VWS V14.00,2013-01-23 03:48:00,
2013-01-22 22:53:00,29.3,10.1,30.13,WNW,293,0.0,0.0,44,0.00,,CLR,0.00,VWS V14.00,2013-01-23 03:53:00,
2013-01-22 22:58:00,29.1,13.2,30.13,WNW,293,0.0,0.0,51,0.00,,CLR,0.00,VWS V14.00,2013-01-23 03:58:00,
2013-01-22 23:00:00,28.9,10.7,30.13,WNW,293,0.0,0.0,46,0.00,,CLR,0.00,VWS V14.00,2013-01-23 04:00:00,
2013-01-22 23:03:00,28.8,10.1,30.13,WNW,293,0.0,0.0,45,0.00,,CLR,0.00,VWS V14.00,2013-01-23 04:03:00,
2013-01-22 23:08:00,28.8,10.1,30.13,WNW,293,0.0,0.0,45,0.00,,CLR,0.00,VWS V14.00,2013-01-23 04:08:00,
2013-01-22 23:13:00,28.8,11.1,30.13,WNW,293,0.0,0.0,47,0.00,,CLR,0.00,VWS V14.00,2013-01-23 04:13:00,
2013-01-22 23:18:00,28.7,9.6,30.13,WNW,293,0.0,0.0,44,0.00,,CLR,0.00,VWS V14.00,2013-01-23 04:18:00,
2013-01-22 23:23:00,29.0,9.8,30.13,WNW,293,0.0,0.0,44,0.00,,CLR,0.00,VWS V14.00,2013-01-23 04:23:00,
2013-01-22 23:28:00,29.0,10.3,30.13,WNW,293,0.0,0.0,45,0.00,,CLR,0.00,VWS V14.00,2013-01-23 04:28:00,
2013-01-22 23:30:00,29.0,10.3,30.13,WNW,293,0.0,0.0,45,0.00,,CLR,0.00,VWS V14.00,2013-01-23 04:30:00,
2013-01-22 23:33:00,29.0,13.1,30.13,WNW,293,0.0,0.0,51,0.00,,CLR,0.00,VWS V14.00,2013-01-23 04:33:00,
2013-01-22 23:38:00,28.8,13.0,30.13,WNW,293,0.0,1.0,51,0.00,,CLR,0.00,VWS V14.00,2013-01-23 04:38:00,
2013-01-22 23:43:00,28.5,10.9,30.13,WNW,293,0.0,1.0,47,0.00,,CLR,0.00,VWS V14.00,2013-01-23 04:43:00,
2013-01-22 23:48:00,28.3,10.2,30.13,WNW,293,0.0,1.0,46,0.00,,CLR,0.00,VWS V14.00,2013-01-23 04:48:00,
2013-01-22 23:53:00,28.4,10.3,30.13,WNW,293,0.0,1.0,46,0.00,,CLR,0.00,VWS V14.00,2013-01-23 04:53:00,
2013-01-22 23:58:00,28.3,12.1,30.13,WNW,293,0.0,1.0,50,0.00,,CLR,0.00,VWS V14.00,2013-01-23 04:58:00,